VOE730 LFRS-LEAS

Flight info

Callsign VOE730
Flight time 0h 53m
Altitude 37000
Route ERIGA DCT FUJTI DCT ATLEN N872 DEVAR
Aircraft A320/M-SDE3FGHIRWY/LB1

Departure

Time 2026-04-20 12:07
Airport Nantes Atlantique Airport (LFRS)

Arrival

Time 2026-04-20 13:00
Airport Asturias Airport (LEAS)
Time Latitude Longitude Altitude Speed Heading
2026-04-20 11:38 47.15714 -1.60267 90 ft 0 kts 45°
2026-04-20 11:57 47.15704 -1.60282 90 ft 4 kts 45°
2026-04-20 11:57 47.15686 -1.60309 92 ft 4 kts 41°
2026-04-20 11:57 47.15665 -1.60332 89 ft 4 kts 13°
2026-04-20 11:57 47.15647 -1.60327 90 ft 4 kts 318°
2026-04-20 11:58 47.15636 -1.60313 89 ft 0 kts 318°
2026-04-20 12:01 47.15637 -1.60314 90 ft 0 kts 318°
2026-04-20 12:02 47.15641 -1.60320 90 ft 3 kts 318°
2026-04-20 12:02 47.15674 -1.60363 90 ft 9 kts 318°
2026-04-20 12:02 47.15717 -1.60426 90 ft 9 kts 301°
2026-04-20 12:02 47.15686 -1.60525 91 ft 16 kts 210°
2026-04-20 12:03 47.15587 -1.60600 91 ft 16 kts 207°
2026-04-20 12:03 47.15492 -1.60672 92 ft 16 kts 207°
2026-04-20 12:03 47.15390 -1.60753 93 ft 17 kts 209°
2026-04-20 12:03 47.15274 -1.60841 91 ft 21 kts 205°
2026-04-20 12:04 47.15132 -1.60946 91 ft 24 kts 207°
2026-04-20 12:04 47.14969 -1.61070 90 ft 29 kts 207°
2026-04-20 12:04 47.14784 -1.61209 91 ft 32 kts 206°
2026-04-20 12:04 47.14595 -1.61353 89 ft 29 kts 208°
2026-04-20 12:05 47.14452 -1.61464 89 ft 21 kts 207°
2026-04-20 12:05 47.14326 -1.61561 85 ft 17 kts 207°
2026-04-20 12:05 47.14220 -1.61642 86 ft 17 kts 207°
2026-04-20 12:05 47.14157 -1.61743 86 ft 14 kts 250°
2026-04-20 12:06 47.14143 -1.61858 84 ft 10 kts 281°
2026-04-20 12:06 47.14165 -1.61922 88 ft 5 kts 300°
2026-04-20 12:06 47.14192 -1.61927 86 ft 5 kts
2026-04-20 12:06 47.14236 -1.61896 86 ft 10 kts 28°
2026-04-20 12:07 47.14324 -1.61828 87 ft 26 kts 27°
2026-04-20 12:07 47.14757 -1.61499 93 ft 112 kts 27°
2026-04-20 12:07 47.15586 -1.60851 582 ft 142 kts 33°
2026-04-20 12:07 47.16564 -1.60414 1494 ft 160 kts 360°
2026-04-20 12:08 47.17587 -1.61245 2249 ft 189 kts 315°
2026-04-20 12:08 47.18370 -1.62976 2842 ft 216 kts 303°
2026-04-20 12:08 47.19120 -1.65057 3508 ft 243 kts 299°
2026-04-20 12:08 47.19923 -1.67407 4302 ft 270 kts 298°
2026-04-20 12:09 47.20808 -1.69932 5327 ft 283 kts 299°
2026-04-20 12:09 47.21651 -1.72590 6565 ft 291 kts 288°
2026-04-20 12:09 47.21950 -1.75514 7914 ft 290 kts 270°
2026-04-20 12:09 47.21626 -1.78436 9282 ft 291 kts 253°
2026-04-20 12:10 47.20768 -1.81153 10521 ft 296 kts 245°
2026-04-20 12:10 47.19801 -1.83917 11399 ft 309 kts 245°
2026-04-20 12:10 47.18814 -1.86732 12596 ft 310 kts 244°
2026-04-20 12:10 47.17821 -1.89559 13819 ft 311 kts 245°
2026-04-20 12:11 47.16828 -1.92380 14886 ft 312 kts 245°
2026-04-20 12:11 47.15827 -1.95227 15835 ft 316 kts 245°
2026-04-20 12:11 47.14780 -1.98093 16762 ft 322 kts 240°
2026-04-20 12:11 47.13312 -2.00640 17677 ft 329 kts 233°
2026-04-20 12:12 47.11761 -2.03149 18607 ft 333 kts 232°
2026-04-20 12:12 47.10178 -2.05658 19410 ft 337 kts 232°
2026-04-20 12:12 47.08583 -2.08190 20246 ft 340 kts 232°
2026-04-20 12:12 47.06982 -2.10763 21056 ft 343 kts 233°
2026-04-20 12:13 47.05394 -2.13347 21823 ft 347 kts 233°
2026-04-20 12:13 47.03775 -2.16001 22589 ft 351 kts 233°
2026-04-20 12:13 47.02140 -2.18689 23337 ft 356 kts 233°
2026-04-20 12:13 47.00482 -2.21412 24012 ft 360 kts 233°
2026-04-20 12:14 46.98803 -2.24162 24636 ft 364 kts 233°
2026-04-20 12:14 46.97083 -2.26905 25283 ft 369 kts 229°
2026-04-20 12:14 46.95066 -2.29292 25895 ft 378 kts 218°
2026-04-20 12:14 46.92744 -2.31190 26487 ft 385 kts 213°
2026-04-20 12:15 46.90355 -2.33008 27096 ft 389 kts 213°
2026-04-20 12:15 46.87944 -2.34840 27695 ft 392 kts 213°
2026-04-20 12:15 46.85519 -2.36695 28297 ft 394 kts 214°
2026-04-20 12:15 46.83120 -2.38660 28883 ft 396 kts 216°
2026-04-20 12:16 46.80746 -2.40726 29457 ft 399 kts 217°
2026-04-20 12:16 46.78375 -2.42858 30011 ft 401 kts 217°
2026-04-20 12:16 46.75996 -2.45016 30494 ft 405 kts 217°
2026-04-20 12:16 46.73588 -2.47187 30974 ft 407 kts 217°
2026-04-20 12:17 46.71174 -2.49332 31622 ft 405 kts 217°
2026-04-20 12:17 46.68766 -2.51446 32320 ft 403 kts 217°
2026-04-20 12:17 46.66362 -2.53537 33015 ft 401 kts 217°
2026-04-20 12:17 46.63969 -2.55604 33729 ft 399 kts 217°
2026-04-20 12:18 46.61592 -2.57657 34327 ft 397 kts 217°
2026-04-20 12:18 46.59224 -2.59708 34860 ft 396 kts 217°
2026-04-20 12:18 46.56864 -2.61761 35342 ft 395 kts 217°
2026-04-20 12:18 46.54505 -2.63812 35828 ft 395 kts 217°
2026-04-20 12:19 46.52145 -2.65858 36276 ft 395 kts 216°
2026-04-20 12:19 46.49783 -2.67905 36626 ft 395 kts 216°
2026-04-20 12:19 46.47427 -2.69948 36890 ft 395 kts 216°
2026-04-20 12:19 46.45063 -2.71995 37050 ft 395 kts 216°
2026-04-20 12:20 46.40363 -2.76046 37079 ft 400 kts 216°
2026-04-20 12:20 46.37936 -2.78144 37079 ft 411 kts 216°
2026-04-20 12:20 46.35456 -2.80289 37079 ft 419 kts 216°
2026-04-20 12:21 46.30418 -2.84621 37080 ft 422 kts 215°
2026-04-20 12:21 46.25509 -2.89223 37075 ft 417 kts 224°
2026-04-20 12:22 46.21109 -2.94611 37074 ft 417 kts 224°
2026-04-20 12:22 46.17397 -2.99147 37073 ft 417 kts 224°
2026-04-20 12:23 46.12245 -3.05424 37044 ft 417 kts 224°
2026-04-20 12:23 46.08532 -3.09942 37050 ft 417 kts 224°
2026-04-20 12:24 46.04093 -3.15326 37049 ft 417 kts 224°
2026-04-20 12:24 45.99684 -3.20672 37045 ft 417 kts 224°
2026-04-20 12:25 45.95241 -3.26038 37050 ft 417 kts 224°
2026-04-20 12:25 45.90795 -3.31390 37044 ft 417 kts 224°
2026-04-20 12:26 45.86351 -3.36738 37041 ft 417 kts 224°
2026-04-20 12:26 45.81904 -3.42078 37043 ft 417 kts 224°
2026-04-20 12:27 45.77448 -3.47419 37045 ft 417 kts 224°
2026-04-20 12:27 45.72993 -3.52738 37044 ft 417 kts 224°
2026-04-20 12:28 45.68536 -3.58052 37030 ft 417 kts 223°
2026-04-20 12:28 45.64071 -3.63354 37032 ft 417 kts 223°
2026-04-20 12:29 45.59604 -3.68658 37029 ft 417 kts 223°
2026-04-20 12:29 45.55135 -3.73948 37032 ft 417 kts 223°
2026-04-20 12:30 45.50667 -3.79234 37020 ft 417 kts 223°
2026-04-20 12:30 45.46192 -3.84510 37023 ft 417 kts 223°
2026-04-20 12:31 45.41718 -3.89783 37023 ft 417 kts 223°
2026-04-20 12:31 45.37241 -3.95034 37027 ft 417 kts 223°
2026-04-20 12:32 45.32760 -4.00282 37029 ft 417 kts 223°
2026-04-20 12:32 45.28273 -4.05535 37014 ft 417 kts 223°
2026-04-20 12:33 45.23822 -4.10732 37018 ft 417 kts 223°
2026-04-20 12:33 45.19337 -4.15947 37016 ft 417 kts 222°
2026-04-20 12:34 45.14853 -4.21155 37013 ft 417 kts 223°
2026-04-20 12:34 45.10367 -4.26365 37005 ft 417 kts 223°
2026-04-20 12:35 45.05878 -4.31566 37006 ft 417 kts 222°
2026-04-20 12:35 45.01381 -4.36750 37009 ft 417 kts 222°
2026-04-20 12:36 44.96891 -4.41932 37010 ft 417 kts 222°
2026-04-20 12:36 44.92396 -4.47110 37009 ft 417 kts 222°
2026-04-20 12:37 44.87896 -4.52274 36999 ft 417 kts 222°
2026-04-20 12:37 44.83388 -4.57430 36999 ft 417 kts 222°
2026-04-20 12:38 44.81130 -4.60010 36774 ft 418 kts 222°
2026-04-20 12:38 44.78882 -4.62576 36503 ft 414 kts 222°
2026-04-20 12:38 44.76647 -4.65130 36172 ft 412 kts 222°
2026-04-20 12:38 44.74432 -4.67661 35688 ft 409 kts 222°
2026-04-20 12:39 44.69997 -4.72705 34672 ft 411 kts 222°
2026-04-20 12:39 44.67776 -4.75226 34143 ft 409 kts 222°
2026-04-20 12:39 44.65572 -4.77727 33557 ft 406 kts 222°
2026-04-20 12:40 44.63380 -4.80209 33021 ft 403 kts 222°
2026-04-20 12:40 44.61205 -4.82673 32481 ft 401 kts 222°
2026-04-20 12:40 44.59039 -4.85126 31952 ft 398 kts 222°
2026-04-20 12:40 44.56891 -4.87556 31422 ft 395 kts 222°
2026-04-20 12:41 44.54755 -4.89970 30909 ft 393 kts 222°
2026-04-20 12:41 44.52660 -4.92337 30405 ft 391 kts 222°
2026-04-20 12:41 44.50550 -4.94717 29830 ft 388 kts 222°
2026-04-20 12:41 44.48428 -4.97108 29308 ft 385 kts 221°
2026-04-20 12:42 44.46373 -4.99427 28822 ft 383 kts 221°
2026-04-20 12:42 44.44304 -5.01758 28333 ft 380 kts 221°
2026-04-20 12:42 44.42253 -5.04063 27848 ft 377 kts 221°
2026-04-20 12:42 44.40214 -5.06349 27353 ft 374 kts 221°
2026-04-20 12:43 44.38191 -5.08616 26847 ft 371 kts 221°
2026-04-20 12:43 44.36181 -5.10868 26322 ft 369 kts 221°
2026-04-20 12:43 44.34188 -5.13099 25806 ft 366 kts 221°
2026-04-20 12:43 44.32206 -5.15313 25278 ft 363 kts 221°
2026-04-20 12:44 44.30239 -5.17509 24725 ft 361 kts 221°
2026-04-20 12:44 44.28283 -5.19690 24181 ft 359 kts 221°
2026-04-20 12:44 44.26339 -5.21862 23631 ft 357 kts 221°
2026-04-20 12:44 44.24408 -5.24021 23022 ft 355 kts 221°
2026-04-20 12:45 44.22493 -5.26160 22475 ft 351 kts 221°
2026-04-20 12:45 44.20587 -5.28283 21957 ft 348 kts 221°
2026-04-20 12:45 44.18703 -5.30377 21439 ft 345 kts 221°
2026-04-20 12:45 44.16832 -5.32454 20931 ft 342 kts 221°
2026-04-20 12:46 44.14972 -5.34514 20427 ft 340 kts 221°
2026-04-20 12:46 44.13130 -5.36553 19928 ft 337 kts 221°
2026-04-20 12:46 44.11301 -5.38578 19441 ft 335 kts 221°
2026-04-20 12:46 44.09487 -5.40588 18941 ft 333 kts 221°
2026-04-20 12:47 44.07684 -5.42589 18467 ft 331 kts 221°
2026-04-20 12:47 44.05892 -5.44579 17942 ft 329 kts 221°
2026-04-20 12:47 44.04109 -5.46553 17463 ft 326 kts 221°
2026-04-20 12:47 44.02342 -5.48502 17003 ft 323 kts 221°
2026-04-20 12:48 44.00584 -5.50440 16540 ft 321 kts 221°
2026-04-20 12:48 43.98842 -5.52358 16094 ft 319 kts 221°
2026-04-20 12:48 43.97110 -5.54261 15652 ft 317 kts 220°
2026-04-20 12:48 43.95313 -5.56018 15216 ft 317 kts 211°
2026-04-20 12:49 43.93248 -5.57112 14762 ft 320 kts 195°
2026-04-20 12:49 43.91027 -5.57478 14323 ft 321 kts 186°
2026-04-20 12:49 43.88828 -5.57676 13877 ft 320 kts 186°
2026-04-20 12:49 43.86601 -5.57879 13386 ft 319 kts 186°
2026-04-20 12:50 43.84396 -5.58079 12938 ft 317 kts 186°
2026-04-20 12:50 43.82206 -5.58275 12491 ft 314 kts 186°
2026-04-20 12:50 43.80030 -5.58469 12027 ft 312 kts 186°
2026-04-20 12:50 43.77869 -5.58665 11569 ft 310 kts 186°
2026-04-20 12:51 43.75724 -5.58863 11106 ft 308 kts 186°
2026-04-20 12:51 43.73590 -5.59059 10643 ft 306 kts 186°
2026-04-20 12:51 43.71468 -5.59251 10165 ft 305 kts 186°
2026-04-20 12:51 43.69354 -5.59439 9784 ft 300 kts 186°
2026-04-20 12:52 43.67321 -5.59619 9590 ft 288 kts 185°
2026-04-20 12:52 43.65333 -5.59796 9182 ft 284 kts 185°
2026-04-20 12:52 43.63367 -5.59976 8737 ft 282 kts 185°
2026-04-20 12:52 43.61423 -5.60156 8136 ft 278 kts 185°
2026-04-20 12:53 43.59517 -5.60452 7468 ft 275 kts 194°
2026-04-20 12:53 43.57704 -5.61220 6825 ft 271 kts 199°
2026-04-20 12:53 43.55928 -5.62030 6273 ft 266 kts 199°
2026-04-20 12:53 43.54197 -5.62817 5762 ft 259 kts 198°
2026-04-20 12:54 43.52506 -5.63585 5486 ft 249 kts 198°
2026-04-20 12:54 43.50909 -5.64314 5426 ft 236 kts 198°
2026-04-20 12:54 43.49377 -5.65086 5336 ft 233 kts 208°
2026-04-20 12:54 43.48273 -5.66668 5235 ft 234 kts 245°
2026-04-20 12:55 43.48097 -5.68868 5140 ft 237 kts 280°
2026-04-20 12:55 43.48580 -5.71063 4953 ft 239 kts 288°
2026-04-20 12:55 43.49129 -5.73203 4675 ft 236 kts 287°
2026-04-20 12:55 43.49652 -5.75339 4360 ft 234 kts 287°
2026-04-20 12:56 43.50161 -5.77462 4060 ft 233 kts 287°
2026-04-20 12:56 43.50668 -5.79579 3763 ft 233 kts 288°
2026-04-20 12:56 43.51166 -5.81659 3457 ft 222 kts 289°
2026-04-20 12:56 43.51632 -5.83610 3193 ft 210 kts 289°
2026-04-20 12:57 43.52067 -5.85435 2925 ft 191 kts 289°
2026-04-20 12:57 43.52466 -5.87107 2688 ft 178 kts 290°
2026-04-20 12:57 43.52853 -5.88725 2444 ft 173 kts 291°
2026-04-20 12:57 43.53227 -5.90290 2216 ft 170 kts 291°
2026-04-20 12:58 43.53593 -5.91828 1999 ft 164 kts 291°
2026-04-20 12:58 43.53918 -5.93199 1786 ft 143 kts 292°
2026-04-20 12:58 43.54214 -5.94444 1608 ft 130 kts 292°
2026-04-20 12:58 43.54488 -5.95593 1439 ft 126 kts 292°
2026-04-20 12:59 43.54758 -5.96728 1274 ft 125 kts 290°
2026-04-20 12:59 43.55027 -5.97855 1103 ft 122 kts 290°
2026-04-20 12:59 43.55288 -5.98957 939 ft 121 kts 289°
2026-04-20 12:59 43.55549 -6.00055 781 ft 120 kts 290°
2026-04-20 13:00 43.55813 -6.01138 587 ft 118 kts 289°
2026-04-20 13:00 43.56062 -6.02219 457 ft 118 kts 289°
2026-04-20 13:00 43.56296 -6.03200 420 ft 89 kts 288°
2026-04-20 13:00 43.56434 -6.03782 417 ft 39 kts 288°
2026-04-20 13:01 43.56489 -6.04065 417 ft 29 kts 277°
2026-04-20 13:01 43.56478 -6.04309 419 ft 13 kts 256°
2026-04-20 13:01 43.56408 -6.04349 422 ft 14 kts 140°
2026-04-20 13:01 43.56377 -6.04245 418 ft 10 kts 108°
2026-04-20 13:02 43.56363 -6.04185 420 ft 10 kts 108°
2026-04-20 13:02 43.56340 -6.04088 420 ft 11 kts 108°
2026-04-20 13:02 43.56314 -6.03980 419 ft 12 kts 108°
2026-04-20 13:02 43.56288 -6.03877 420 ft 11 kts 109°
2026-04-20 13:03 43.56264 -6.03772 413 ft 17 kts 108°
2026-04-20 13:03 43.56223 -6.03596 414 ft 20 kts 108°
2026-04-20 13:03 43.56177 -6.03402 423 ft 23 kts 108°
2026-04-20 13:03 43.56145 -6.03264 423 ft 11 kts 108°
2026-04-20 13:04 43.56086 -6.03231 426 ft 7 kts 185°
2026-04-20 13:04 43.56052 -6.03201 420 ft 6 kts 110°
2026-04-20 13:04 43.56038 -6.03144 425 ft 4 kts 120°
2026-04-20 13:04 43.56015 -6.03145 423 ft 4 kts 189°
2026-04-20 13:05 43.55996 -6.03156 418 ft 2 kts 217°
2026-04-20 13:05 43.55996 -6.03173 423 ft 2 kts 271°